Total_Precipitation_Accumulation
0.07 0.15 0.40 0.76 1.27 1.62 1.31 0.67 0.50 0.36 0.34 0.46 0.45 0.34 0.36 0.48 0.68 1.09 0.75 0.58 0.33 0.29 0.37 0.52 0.61 0.58 0.62 0.62 0.67 0.76 0.75 0.77 0.81 0.88 0.85 0.99 1.00 0.95 0.94 0.99 1.03 1.13 1.29 1.29 1.26 1.03 0.83 0.74 0.72
0.11 0.23 0.51 0.96 1.60 1.84 1.16 0.53 0.39 0.31 0.38 0.46 0.37 0.29 0.33 0.32 0.29 0.34 0.49 0.53 0.25 0.20 0.25 0.27 0.44 0.48 0.49 0.52 0.59 0.62 0.64 0.65 0.72 0.85 0.87 0.93 0.97 0.94 0.93 1.01 1.09 1.23 1.20 1.08 1.05 0.90 0.71 0.64 0.62
0.15 0.25 0.61 0.99 1.20 1.24 0.65 0.32 0.29 0.28 0.40 0.42 0.35 0.30 0.33 0.41 0.39 0.39 0.37 0.31 0.19 0.16 0.19 0.24 0.33 0.38 0.42 0.44 0.51 0.51 0.50 0.54 0.62 0.73 0.86 0.95 0.95 0.97 1.01 1.06 1.16 1.12 0.97 0.92 0.94 0.80 0.67 0.58 0.53
0.19 0.33 0.56 0.75 0.79 0.64 0.37 0.25 0.25 0.28 0.39 0.34 0.29 0.39 0.46 0.52 0.33 0.31 0.32 0.26 0.18 0.17 0.20 0.26 0.35 0.33 0.36 0.40 0.43 0.45 0.45 0.50 0.54 0.60 0.75 0.90 1.02 1.05 1.04 1.02 1.00 0.91 0.81 0.79 0.71 0.63 0.57 0.50 0.47
0.20 0.44 0.67 0.68 0.57 0.39 0.29 0.25 0.25 0.26 0.25 0.31 0.35 0.54 0.64 0.62 0.36 0.40 0.42 0.30 0.18 0.21 0.26 0.30 0.34 0.30 0.30 0.36 0.40 0.43 0.44 0.47 0.51 0.54 0.65 0.82 0.98 1.02 0.94 0.82 0.78 0.74 0.66 0.60 0.59 0.58 0.47 0.46 0.48
0.24 0.41 0.51 0.50 0.38 0.24 0.26 0.25 0.21 0.21 0.27 0.36 0.46 0.49 0.70 0.65 0.50 0.67 0.61 0.47 0.30 0.31 0.38 0.43 0.44 0.40 0.36 0.36 0.39 0.40 0.44 0.47 0.51 0.55 0.61 0.69 0.77 0.81 0.75 0.70 0.71 0.68 0.59 0.53 0.52 0.50 0.45 0.47 0.51
0.22 0.29 0.35 0.31 0.25 0.21 0.20 0.20 0.19 0.20 0.34 0.46 0.50 0.60 0.85 0.95 0.70 0.68 0.76 0.72 0.51 0.52 0.66 0.65 0.55 0.53 0.56 0.57 0.56 0.54 0.58 0.61 0.60 0.62 0.59 0.62 0.65 0.70 0.71 0.71 0.67 0.63 0.58 0.53 0.47 0.43 0.43 0.48 0.53
0.14 0.16 0.18 0.16 0.14 0.16 0.13 0.15 0.18 0.22 0.29 0.46 0.57 0.72 1.05 1.01 0.82 0.82 0.89 1.03 0.82 0.71 0.73 0.73 0.63 0.62 0.59 0.60 0.67 0.68 0.70 0.72 0.68 0.63 0.59 0.59 0.57 0.61 0.65 0.61 0.71 0.68 0.69 0.69 0.65 0.56 0.50 0.54 0.62
0.09 0.14 0.13 0.11 0.08 0.09 0.08 0.11 0.17 0.24 0.30 0.36 0.59 0.77 0.81 0.74 0.93 1.01 1.17 1.42 1.38 1.13 1.03 0.90 0.63 0.58 0.56 0.51 0.54 0.69 0.74 0.77 0.82 0.78 0.70 0.84 0.99 0.96 1.06 0.91 1.11 1.00 0.99 0.96 0.95 0.88 0.85 0.85 0.75
0.08 0.12 0.10 0.06 0.05 0.06 0.06 0.09 0.16 0.34 0.50 0.74 0.98 0.95 0.74 0.74 1.06 1.25 1.44 1.72 1.78 1.64 1.45 1.21 0.92 0.74 0.69 0.63 0.72 0.85 0.88 0.99 1.05 1.21 1.20 1.49 1.74 1.66 1.25 1.35 1.60 1.60 1.54 1.46 1.50 1.62 1.44 1.25 1.08
0.05 0.06 0.04 0.05 0.04 0.04 0.04 0.08 0.11 0.24 0.68 1.18 1.42 1.33 1.13 1.00 1.25 1.60 1.93 2.24 2.04 1.78 1.64 1.53 1.29 1.07 0.88 0.96 0.99 1.11 1.28 1.59 1.44 1.39 1.51 1.91 1.76 1.49 1.37 1.54 1.86 2.10 2.03 1.98 2.05 2.19 1.83 1.90 2.10
0.03 0.03 0.02 0.03 0.03 0.03 0.04 0.06 0.15 0.26 0.67 0.94 1.17 1.26 1.30 1.30 1.38 1.60 1.92 2.21 2.42 2.33 2.11 1.90 1.73 1.51 1.47 1.39 1.32 1.28 1.36 1.52 1.53 1.71 1.59 1.94 2.06 1.91 1.90 2.13 2.16 2.36 2.54 2.95 2.76 2.86 2.70 2.60 2.44
0.02 0.02 0.02 0.02 0.02 0.02 0.03 0.09 0.18 0.29 0.55 0.62 0.72 0.87 1.16 1.39 1.73 2.02 2.18 2.52 2.65 2.77 2.57 2.43 2.28 2.19 2.17 2.06 1.89 1.51 1.59 1.60 1.68 1.94 2.01 2.12 2.34 2.42 2.50 2.49 2.42 2.23 2.57 3.01 3.26 2.96 3.23 3.22 2.81
0.03 0.02 0.01 0.02 0.03 0.04 0.05 0.10 0.21 0.35 0.49 0.56 0.65 0.85 1.12 1.46 1.74 2.17 2.47 2.87 2.88 2.93 3.06 3.16 3.03 2.91 2.92 2.73 2.57 2.29 2.07 2.20 2.16 2.25 2.45 2.59 2.81 2.98 3.04 2.87 2.78 2.46 2.46 2.75 3.00 3.01 3.35 3.19 3.02
0.03 0.03 0.06 0.07 0.06 0.08 0.15 0.26 0.40 0.52 0.57 0.75 0.85 1.10 1.27 1.59 1.96 2.05 2.23 2.49 2.81 3.09 3.55 3.83 3.86 3.78 3.75 3.63 3.32 2.95 2.78 2.79 3.00 3.13 3.13 3.08 3.20 3.48 3.36 3.15 2.78 2.60 2.63 2.78 2.74 2.79 2.91 2.80 2.72
0.04 0.07 0.16 0.15 0.10 0.11 0.20 0.51 0.61 0.63 0.74 0.95 1.00 1.24 1.54 1.62 1.97 2.11 2.14 2.35 2.94 3.41 3.97 4.28 4.43 4.66 4.54 4.51 4.19 3.68 3.45 3.38 3.40 3.48 3.49 3.38 3.42 3.31 3.31 3.01 2.61 2.66 2.70 2.71 2.78 2.65 2.72 2.75 2.78
0.08 0.12 0.19 0.24 0.15 0.16 0.24 0.55 0.68 0.70 0.88 1.04 1.20 1.27 1.41 1.61 2.04 2.33 2.48 2.63 3.16 3.75 4.41 4.81 5.30 5.59 5.47 5.20 4.73 4.27 4.15 3.96 3.77 3.74 3.69 3.54 3.29 3.12 3.26 2.96 2.83 2.78 2.75 2.60 2.36 2.72 2.91 2.93 2.91
0.13 0.13 0.21 0.29 0.19 0.18 0.32 0.53 0.75 0.84 0.99 1.15 1.20 1.21 1.35 1.64 1.85 2.21 2.53 2.96 3.40 3.83 4.57 5.20 5.76 5.97 5.74 5.21 4.82 4.66 4.44 4.10 3.87 3.60 3.39 3.16 3.03 2.84 3.04 2.76 2.70 2.82 2.89 2.69 2.66 2.93 2.99 2.72 2.76
0.09 0.11 0.21 0.27 0.18 0.21 0.36 0.56 0.76 0.92 1.07 1.14 1.30 1.29 1.50 1.75 1.90 2.27 2.63 3.11 3.55 4.05 4.77 5.39 5.82 5.79 5.61 5.26 4.90 4.64 4.12 3.79 3.52 3.24 3.01 2.80 2.56 2.48 2.82 2.58 2.84 2.72 2.62 2.45 2.40 2.51 2.56 2.32 2.54
0.09 0.14 0.25 0.27 0.18 0.19 0.36 0.61 0.88 0.96 0.92 0.95 1.17 1.28 1.37 1.57 1.86 2.20 2.71 3.01 3.37 3.87 4.43 4.84 4.84 4.51 4.38 4.39 4.30 4.06 4.05 3.86 3.72 3.44 3.22 2.83 2.67 2.56 2.42 2.59 2.42 2.38 2.46 2.28 2.17 2.36 2.36 2.13 2.47
0.08 0.13 0.20 0.24 0.25 0.28 0.39 0.76 1.05 1.07 0.93 0.86 0.90 1.02 1.15 1.30 1.50 1.83 2.38 2.69 2.88 3.35 3.69 3.72 3.61 3.43 3.48 3.54 3.53 3.61 3.82 3.80 3.73 3.57 3.29 3.00 2.85 2.74 2.61 2.50 2.31 2.25 2.08 2.16 2.20 2.26 2.30 2.22 2.22
0.10 0.09 0.11 0.14 0.23 0.46 0.52 0.95 1.26 1.35 1.26 1.02 0.90 1.01 1.09 1.21 1.26 1.56 1.87 2.10 2.36 2.60 2.72 2.71 2.80 2.82 2.84 2.89 2.92 2.83 2.86 3.02 3.21 3.41 3.46 3.39 3.14 2.88 2.62 2.45 2.24 2.07 1.93 2.12 1.85 1.96 2.25 2.34 2.08
0.07 0.07 0.09 0.14 0.21 0.35 0.46 0.74 1.20 1.48 1.61 1.27 1.02 0.92 0.88 1.04 1.29 1.48 1.58 1.74 1.83 1.86 1.97 2.04 2.33 2.64 2.75 2.82 2.91 2.83 2.55 2.52 2.56 2.69 2.83 2.84 2.82 2.65 2.36 2.25 2.18 2.03 1.89 1.89 1.85 2.11 2.14 2.11 2.05
0.08 0.12 0.20 0.30 0.44 0.68 0.63 0.68 1.09 1.35 1.51 1.22 1.00 0.91 0.79 0.81 0.99 1.21 1.46 1.54 1.49 1.46 1.62 1.83 2.13 2.52 2.74 2.81 2.76 2.71 2.60 2.57 2.48 2.49 2.54 2.41 2.38 2.32 2.16 2.07 2.12 1.98 1.85 1.84 1.85 1.99 2.05 2.15 2.24
0.09 0.17 0.54 0.93 1.25 1.27 0.75 0.72 0.96 1.02 0.96 0.96 0.83 0.78 0.82 0.76 0.76 0.77 0.95 1.19 1.16 1.12 1.29 1.55 1.73 2.04 2.26 2.37 2.35 2.27 2.36 2.47 2.36 2.23 2.16 2.09 1.95 1.86 1.87 1.94 2.03 1.87 1.81 1.88 2.02 2.02 1.98 2.12 2.22
0.08 0.13 0.39 0.68 0.86 0.98 0.81 1.13 1.27 0.95 0.79 0.70 0.58 0.56 0.65 0.60 0.56 0.55 0.61 0.75 0.96 0.98 1.04 1.15 1.38 1.60 1.79 1.87 1.98 2.08 2.24 2.34 2.29 2.43 2.24 2.09 1.80 1.66 1.72 1.91 1.97 1.89 1.82 1.80 2.12 2.12 2.12 2.20 2.18
0.10 0.09 0.14 0.25 0.39 0.67 0.94 1.16 1.15 0.97 0.91 0.72 0.54 0.47 0.49 0.47 0.46 0.46 0.54 0.71 0.73 0.73 0.79 0.90 1.13 1.32 1.47 1.60 1.76 1.83 1.81 1.82 1.95 2.14 2.16 2.01 1.92 1.73 1.80 1.87 2.04 2.12 2.17 2.19 2.34 2.26 2.25 2.43 2.41
0.10 0.09 0.12 0.19 0.34 0.53 0.85 1.22 1.30 1.21 1.06 0.89 0.78 0.57 0.45 0.44 0.46 0.44 0.46 0.53 0.54 0.53 0.67 0.91 1.10 1.13 1.33 1.62 1.78 1.68 1.67 1.58 1.72 1.81 1.85 1.91 1.86 1.84 1.88 1.89 1.95 2.06 2.17 2.26 2.41 2.39 2.45 2.62 2.64
0.15 0.12 0.12 0.16 0.20 0.35 0.73 0.96 0.90 0.96 0.90 0.87 0.76 0.63 0.54 0.47 0.47 0.47 0.46 0.46 0.57 0.51 0.61 0.78 0.91 1.04 1.33 1.62 1.81 1.80 1.64 1.63 1.75 1.70 1.67 1.80 1.84 1.82 1.87 1.88 1.85 1.84 1.98 2.20 2.40 2.38 2.52 2.64 2.70
0.16 0.15 0.15 0.22 0.22 0.25 0.40 0.64 0.53 0.63 0.75 0.78 0.62 0.54 0.49 0.38 0.39 0.37 0.34 0.40 0.40 0.40 0.52 0.82 1.13 1.47 1.63 1.87 2.11 2.11 1.81 1.64 1.59 1.49 1.50 1.67 1.86 1.89 1.85 1.84 1.81 1.77 1.87 2.13 2.32 2.43 2.68 2.81 2.73